Retour au catalogue

STARLINK-32029

ActifCommunicationsVLEO
NORAD 60145·PAYLOAD·🇺🇸 United States

Lancé Jun 27, 2024 depuis Cape Canaveral Space Force Station

Loading…

Prochains Passages (prochaines 24 heures)

TLE

FraisSource: CelesTrak SupGP

Époque: Sep 15, 2026, 02:02 UTC

1 60145C 24120L   26258.08520833  .00026381  00000+0  77895-3 0  2583
2 60145  53.1578 156.8467 0001177  81.5832 177.7123 15.34396960    12

Suivez STARLINK-32029 en temps réel avec AllMySat

Download on the App Store